GW0353 Weather Reports


time (UTC)temp
F
wind
direction
speed
knots
gust
knots
rain 1hr
in
rain 24hr
in
rain mn
in
humidity
%
barometer
mb
20260906133109 42 0 0.0 4.3 0.00 0.00 0.00 44 1021.6
20260906132558 42 0 1.7 4.3 0.00 0.00 0.00 43 1021.6
20260906132059 42 0 0.0 2.6 0.00 0.00 0.00 44 1021.4
20260906131601 42 0 0.0 2.6 0.00 0.00 0.00 44 1021.4
20260906131100 42 0 0.0 2.6 0.00 0.00 0.00 45 1021.4
20260906130557 42 158 0.0 2.6 0.00 0.00 0.00 47 1021.5
20260906130116 42 212 0.0 5.2 0.00 0.00 0.00 48 1021.2
20260906125557 41 0 0.0 5.2 0.00 0.00 0.00 49 1021.5
20260906125058 41 229 0.0 2.6 0.00 0.00 0.00 50 1021.5
20260906124606 42 6 0.0 2.6 0.00 0.00 0.00 48 1021.2
20260906124056 42 231 0.0 0.9 0.00 0.00 0.00 49 1021.4
20260906123558 42 256 0.0 1.7 0.00 0.00 0.00 48 1021.3
20260906123140 43 0 0.0 2.6 0.00 0.00 0.00 47 1021.4
20260906122559 42 156 0.9 5.2 0.00 0.00 0.00 49 1021.3
20260906122058 42 0 0.9 5.2 0.00 0.00 0.00 50 1021.4
20260906121605 41 145 0.0 2.6 0.00 0.00 0.00 49 1021.5
20260906121058 42 0 0.9 2.6 0.00 0.00 0.00 49 1021.5
20260906120558 42 0 0.0 1.7 0.00 0.00 0.00 48 1021.4
20260906120112 42 0 0.0 3.5 0.00 0.00 0.00 49 1021.6
20260906115557 42 0 0.0 3.5 0.00 0.00 0.00 49 1021.4
20260906115057 43 207 0.0 3.5 0.00 0.00 0.00 49 1021.5
20260906114611 43 248 0.9 2.6 0.00 0.00 0.00 48 1021.5
20260906114057 43 0 0.0 5.2 0.00 0.00 0.00 48 1021.5
20260906113556 43 0 0.0 5.2 0.00 0.00 0.00 47 1021.5
20260906113108 43 243 0.0 3.5 0.00 0.00 0.00 50 1021.5
20260906112558 43 115 0.9 3.5 0.00 0.00 0.00 49 1021.4
20260906112056 45 0 0.0 1.7 0.00 0.00 0.00 47 1021.6
20260906111606 45 0 0.0 1.7 0.00 0.00 0.00 46 1021.5
20260906111058 45 222 0.0 2.6 0.00 0.00 0.00 47 1021.5
20260906110559 45 0 0.0 3.5 0.00 0.00 0.00 48 1021.5
20260906110106 45 0 1.7 3.5 0.00 0.00 0.00 48 1021.6
20260906105558 46 0 0.0 4.3 0.00 0.00 0.00 47 1021.5
20260906105058 46 0 0.0 4.3 0.00 0.00 0.00 47 1021.5
20260906104609 47 217 1.7 4.3 0.00 0.00 0.00 47 1021.7
20260906104056 47 0 0.0 2.6 0.00 0.00 0.00 46 1021.6
20260906103557 48 235 0.9 2.6 0.00 0.00 0.00 46 1021.7
20260906103106 48 92 1.7 2.6 0.00 0.00 0.00 45 1021.5
20260906102558 48 0 0.0 2.6 0.00 0.00 0.00 45 1021.5
20260906102058 49 219 0.0 2.6 0.00 0.00 0.00 44 1021.6
20260906101605 48 84 0.9 5.2 0.00 0.00 0.00 45 1021.6
20260906101057 48 181 0.0 5.2 0.00 0.00 0.00 46 1021.8
20260906100557 47 72 1.7 5.2 0.00 0.00 0.00 47 1021.6
20260906100110 48 0 0.9 6.1 0.00 0.00 0.00 47 1021.7
20260906095557 47 162 0.0 6.1 0.00 0.00 0.00 48 1022.0
20260906095058 46 75 3.5 6.1 0.00 0.00 0.00 50 1021.9
20260906094609 45 0 0.9 3.5 0.00 0.00 0.00 50 1021.8
20260906094058 45 68 1.7 3.5 0.00 0.00 0.00 50 1021.8
20260906093558 46 0 1.7 6.1 0.00 0.00 0.00 51 1021.8
20260906093108 48 0 3.5 6.1 0.00 0.00 0.00 47 1021.9
20260906092558 46 141 0.9 1.7 0.00 0.00 0.00 50 1021.9
20260906092058 47 0 0.0 1.7 0.00 0.00 0.00 49 1022.0
20260906091607 48 0 0.0 1.7 0.00 0.00 0.00 48 1021.8
20260906091100 48 224 0.0 0.9 0.00 0.00 0.00 48 1022.0
20260906090559 50 0 0.0 2.6 0.00 0.00 0.00 46 1022.1
20260906090104 51 0 0.9 7.0 0.00 0.00 0.00 46 1022.0
20260906085557 51 52 3.5 7.0 0.00 0.00 0.00 46 1022.2
20260906085057 49 99 4.3 7.0 0.00 0.00 0.00 49 1022.0
20260906084606 47 54 0.9 2.6 0.00 0.00 0.00 52 1022.0
20260906084057 47 0 0.0 6.1 0.00 0.00 0.00 52 1022.2
20260906083558 49 0 0.0 7.8 0.00 0.00 0.00 51 1022.1
20260906083106 47 79 4.3 7.8 0.00 0.00 0.00 52 1022.1
20260906082557 46 40 0.0 4.3 0.00 0.00 0.00 54 1022.0
20260906082058 47 169 0.9 4.3 0.00 0.00 0.00 53 1022.1
20260906081604 47 62 0.0 2.6 0.00 0.00 0.00 53 1022.0
20260906081058 48 0 0.9 2.6 0.00 0.00 0.00 51 1022.0
20260906080558 49 0 1.7 2.6 0.00 0.00 0.00 51 1021.9
20260906080103 49 140 0.0 3.5 0.00 0.00 0.00 51 1022.0
20260906075618 50 0 0.0 7.0 0.00 0.00 0.00 50 1022.0
20260906075058 50 77 3.5 7.0 0.00 0.00 0.00 50 1022.0
20260906074614 49 53 0.9 7.8 0.00 0.00 0.00 52 1021.7
20260906074055 50 0 1.7 7.8 0.00 0.00 0.00 52 1022.0
20260906073600 48 65 4.3 6.1 0.00 0.00 0.00 57 1021.9
20260906073105 45 0 0.0 0.9 0.00 0.00 0.00 58 1021.9
20260906072558 46 0 0.0 0.9 0.00 0.00 0.00 58 1022.0
20260906072058 46 0 0.0 0.9 0.00 0.00 0.00 58 1022.0
20260906071605 45 30 0.0 0.9 0.00 0.00 0.00 61 1021.9
20260906071057 45 0 0.0 0.9 0.00 0.00 0.00 60 1022.0
20260906070558 45 0 0.0 0.9 0.00 0.00 0.00 61 1021.9
20260906070111 46 0 0.0 0.9 0.00 0.00 0.00 60 1021.9
20260906065558 47 0 0.0 0.9 0.00 0.00 0.00 60 1021.8
20260906065058 47 17 0.0 1.7 0.00 0.00 0.00 59 1022.0
20260906064606 47 0 0.0 1.7 0.00 0.00 0.00 59 1021.8
20260906064058 48 354 0.0 1.7 0.00 0.00 0.00 58 1021.7
20260906063556 48 200 0.0 0.9 0.00 0.00 0.00 58 1021.9
20260906063106 48 0 0.0 0.9 0.00 0.00 0.00 58 1021.8
20260906062555 49 0 0.0 1.7 0.00 0.00 0.00 58 1021.9
20260906062055 49 0 0.0 1.7 0.00 0.00 0.00 57 1022.0
20260906061607 50 0 0.0 3.5 0.00 0.00 0.00 57 1022.1
20260906061057 50 0 0.9 4.3 0.00 0.00 0.00 57 1022.0
20260906060555 49 59 1.7 4.3 0.00 0.00 0.00 58 1021.9
20260906060105 49 158 1.7 3.5 0.00 0.00 0.00 59 1022.0
20260906055559 49 0 0.9 2.6 0.00 0.00 0.00 61 1022.0
20260906055057 49 136 0.0 2.6 0.00 0.00 0.00 61 1022.2
20260906054608 49 154 0.0 3.5 0.00 0.00 0.00 60 1022.2
20260906054056 49 0 0.9 4.3 0.00 0.00 0.00 60 1022.1
20260906053556 49 79 2.6 4.3 0.00 0.00 0.00 62 1022.1
20260906053110 48 101 1.7 3.5 0.00 0.00 0.00 62 1022.1
20260906052555 49 0 0.9 4.3 0.00 0.00 0.00 61 1022.2
20260906052059 48 105 0.0 4.3 0.00 0.00 0.00 61 1022.1
20260906051605 49 205 0.0 2.6 0.00 0.00 0.00 61 1022.4
20260906051058 49 0 0.0 2.6 0.00 0.00 0.00 60 1022.1
20260906050600 49 0 0.0 0.9 0.00 0.00 0.00 61 1022.2
20260906050108 49 0 0.0 1.7 0.00 0.00 0.00 61 1022.2
20260906045557 49 128 0.0 1.7 0.00 0.00 0.00 59 1022.2
20260906045103 50 0 0.0 0.9 0.00 0.00 0.00 59 1022.3
20260906044607 51 0 0.0 0.9 0.00 0.00 0.00 58 1022.4
20260906044054 51 0 0.0 0.9 0.00 0.00 0.00 58 1022.2
20260906043556 51 226 0.0 0.0 0.00 0.00 0.00 57 1022.1
20260906043107 52 0 0.0 0.0 0.00 0.00 0.00 57 1022.2
20260906042555 52 0 0.0 0.0 0.00 0.00 0.00 57 1022.1
20260906042055 52 166 0.0 1.7 0.00 0.00 0.00 57 1022.0
20260906041606 53 195 0.0 1.7 0.00 0.00 0.00 54 1022.1
20260906041057 54 0 0.0 0.9 0.00 0.00 0.00 55 1022.0
20260906040600 54 0 0.0 0.9 0.00 0.00 0.00 55 1022.0
20260906040112 55 172 0.0 0.9 0.00 0.00 0.00 54 1021.9
20260906035557 55 0 0.0 2.6 0.00 0.00 0.00 53 1021.8
20260906035101 56 0 0.9 2.6 0.00 0.00 0.00 52 1021.7
20260906034608 56 0 0.0 0.9 0.00 0.00 0.00 50 1021.6
20260906034057 57 0 0.0 4.3 0.00 0.00 0.00 48 1021.7
20260906033557 58 0 0.0 4.3 0.00 0.00 0.00 47 1021.6
20260906033116 58 0 0.9 4.3 0.00 0.00 0.00 46 1021.5
20260906032558 59 347 1.7 6.1 0.00 0.00 0.00 45 1021.5
20260906032057 60 32 1.7 6.1 0.00 0.00 0.00 43 1021.5
20260906031607 63 22 0.0 13.0 0.00 0.00 0.00 37 1021.2
20260906031100 65 340 3.5 13.0 0.00 0.00 0.00 20 1021.0
20260906030558 65 119 7.8 13.9 0.00 0.00 0.00 18 1021.0
20260906030109 65 141 5.2 16.5 0.00 0.00 0.00 19 1020.9
20260906025558 65 86 9.6 17.4 0.00 0.00 0.00 20 1021.1
20260906025058 65 133 9.6 17.4 0.00 0.00 0.00 21 1020.8
20260906024608 65 160 9.6 17.4 0.00 0.00 0.00 22 1021.1
20260906024100 65 155 7.8 13.0 0.00 0.00 0.00 22 1021.0
20260906023558 65 117 7.8 13.9 0.00 0.00 0.00 22 1021.0
20260906023104 65 149 7.0 15.6 0.00 0.00 0.00 23 1020.8
20260906022559 65 145 7.8 18.2 0.00 0.00 0.00 23 1020.9
20260906022102 65 111 8.7 18.2 0.00 0.00 0.00 22 1020.9
20260906021606 65 117 6.1 13.0 0.00 0.00 0.00 23 1020.9
20260906021057 65 180 7.0 13.0 0.00 0.00 0.00 24 1021.0
20260906020557 65 158 6.1 10.4 0.00 0.00 0.00 24 1021.0
20260906020113 65 139 3.5 11.3 0.00 0.00 0.00 23 1020.9
20260906015557 65 148 3.5 13.0 0.00 0.00 0.00 25 1020.9
20260906015058 66 102 6.1 13.0 0.00 0.00 0.00 23 1020.9
20260906014606 66 157 3.5 11.3 0.00 0.00 0.00 23 1020.9
20260906014057 66 141 5.2 11.3 0.00 0.00 0.00 23 1020.6
20260906013601 67 212 5.2 8.7 0.00 0.00 0.00 23 1020.6
20260906013111 67 128 4.3 8.7 0.00 0.00 0.00 23 1020.5
20260906012559 68 153 2.6 7.0 0.00 0.00 0.00 22 1020.5
20260906012057 68 0 1.7 7.0 0.00 0.00 0.00 22 1020.4
20260906011610 68 0 0.0 7.0 0.00 0.00 0.00 22 1020.6
20260906011058 69 94 1.7 11.3 0.00 0.00 0.00 22 1020.5
20260906010555 69 0 2.6 11.3 0.00 0.00 0.00 21 1020.6
20260906010107 70 104 6.1 9.6 0.00 0.00 0.00 20 1020.6
20260906005555 70 75 0.0 6.1 0.00 0.00 0.00 21 1020.5
20260906005057 70 255 0.9 6.1 0.00 0.00 0.00 21 1020.6
20260906004610 70 242 2.6 13.0 0.00 0.00 0.00 22 1020.6
20260906004058 70 222 1.7 13.9 0.00 0.00 0.00 22 1020.5
20260906003558 70 116 7.8 13.9 0.00 0.00 0.00 20 1020.5
20260906003106 70 47 7.8 13.9 0.00 0.00 0.00 21 1020.4
20260906002557 71 105 5.2 11.3 0.00 0.00 0.00 22 1020.4
20260906002055 71 127 2.6 11.3 0.00 0.00 0.00 21 1020.4
20260906001609 71 123 6.1 11.3 0.00 0.00 0.00 19 1020.3
20260906001057 71 106 1.7 8.7 0.00 0.00 0.00 20 1020.3
20260906000557 71 4 4.3 18.2 0.00 0.00 0.00 19 1020.2
20260906000107 71 183 7.8 18.2 0.00 0.00 0.00 22 1020.4
20260905235557 71 132 7.0 13.9 0.00 0.00 0.00 19 1020.1
20260905235057 71 162 0.0 13.0 0.00 0.00 0.00 22 1020.3
20260905234604 71 333 5.2 18.2 0.00 0.00 0.00 20 1020.2
20260905234056 71 169 3.5 18.2 0.00 0.00 0.00 21 1020.1
20260905233556 72 131 11.3 18.2 0.00 0.00 0.00 20 1020.0
20260905233104 73 147 4.3 12.2 0.00 0.00 0.00 20 1019.9
20260905232555 72 110 3.5 9.6 0.00 0.00 0.00 20 1019.9
20260905232056 73 155 0.9 8.7 0.00 0.00 0.00 23 1019.9
20260905231609 72 77 3.5 8.7 0.00 0.00 0.00 21 1019.9
20260905231057 72 49 1.7 6.1 0.00 0.00 0.00 21 1019.9
20260905230557 73 0 2.6 4.3 0.00 0.00 0.00 20 1020.0
20260905230108 73 258 0.9 11.3 0.00 0.00 0.00 22 1020.0
20260905225556 72 0 1.7 11.3 0.00 0.00 0.00 23 1019.9
20260905225057 72 146 4.3 13.0 0.00 0.00 0.00 21 1020.1
20260905224606 72 163 3.5 13.0 0.00 0.00 0.00 23 1019.9
20260905224055 72 94 4.3 12.2 0.00 0.00 0.00 21 1019.9
20260905223555 72 112 5.2 13.9 0.00 0.00 0.00 19 1019.9
20260905223105 71 96 5.2 13.9 0.00 0.00 0.00 23 1019.8
20260905222557 71 125 6.1 14.8 0.00 0.00 0.00 24 1020.0
20260905222057 71 125 7.0 14.8 0.00 0.00 0.00 24 1020.0
20260905221604 71 115 4.3 13.9 0.00 0.00 0.00 23 1020.0
20260905221057 71 111 5.2 13.9 0.00 0.00 0.00 22 1020.1
20260905220558 71 9 1.7 15.6 0.00 0.00 0.00 22 1020.1
20260905220105 71 133 4.3 15.6 0.00 0.00 0.00 24 1019.9
20260905215557 70 13 7.8 15.6 0.00 0.00 0.00 24 1020.1
20260905215058 70 31 5.2 15.6 0.00 0.00 0.00 25 1020.1
20260905214608 70 90 2.6 16.5 0.00 0.00 0.00 24 1020.2
20260905214058 70 98 8.7 16.5 0.00 0.00 0.00 22 1020.4
20260905213557 70 166 5.2 13.0 0.00 0.00 0.00 24 1020.2
20260905213108 71 93 4.3 18.2 0.00 0.00 0.00 24 1020.4
20260905212557 70 180 7.0 18.2 0.00 0.00 0.00 24 1020.4
20260905212057 70 60 5.2 19.1 0.00 0.00 0.00 24 1020.5
20260905211602 70 0 4.3 19.1 0.00 0.00 0.00 25 1020.5
20260905211057 69 80 7.8 19.1 0.00 0.00 0.00 26 1020.5
20260905210557 70 142 3.5 13.9 0.00 0.00 0.00 24 1020.7
20260905210126 69 56 6.1 18.2 0.00 0.00 0.00 26 1020.9
20260905205557 69 123 7.0 18.2 0.00 0.00 0.00 27 1020.9
20260905205101 69 110 6.1 15.6 0.00 0.00 0.00 28 1020.9
20260905204606 68 159 5.2 13.0 0.00 0.00 0.00 28 1020.8
20260905204057 68 150 7.0 20.0 0.00 0.00 0.00 29 1020.9
20260905203558 68 182 7.0 20.0 0.00 0.00 0.00 29 1021.0
20260905203101 67 38 8.7 20.0 0.00 0.00 0.00 28 1020.9
20260905202557 67 102 7.8 20.0 0.00 0.00 0.00 29 1021.0
20260905202057 67 122 7.0 15.6 0.00 0.00 0.00 29 1021.1
20260905201607 66 53 8.7 15.6 0.00 0.00 0.00 30 1020.9
20260905201057 67 158 7.0 15.6 0.00 0.00 0.00 28 1021.1
20260905200558 67 357 5.2 15.6 0.00 0.00 0.00 28 1021.1
20260905200117 67 334 6.1 15.6 0.00 0.00 0.00 29 1021.1
20260905195558 66 86 7.0 19.1 0.00 0.00 0.00 30 1021.1
20260905195057 65 1 7.8 19.1 0.00 0.00 0.00 30 1021.1
20260905194616 65 63 7.8 17.4 0.00 0.00 0.00 30 1021.1
20260905194057 66 118 7.0 17.4 0.00 0.00 0.00 32 1021.0
20260905193556 66 160 8.7 17.4 0.00 0.00 0.00 30 1021.1
20260905193103 66 49 6.1 13.0 0.00 0.00 0.00 30 1021.1
20260905192557 65 109 7.8 15.6 0.00 0.00 0.00 32 1021.1
20260905192121 65 117 7.8 17.4 0.00 0.00 0.00 32 1021.1
20260905191609 65 153 6.1 17.4 0.00 0.00 0.00 32 1021.3
20260905191058 65 94 6.1 17.4 0.00 0.00 0.00 32 1021.1
20260905190558 65 120 7.8 15.6 0.00 0.00 0.00 32 1021.1
20260905190112 65 50 5.2 12.2 0.00 0.00 0.00 31 1021.2
20260905185557 65 61 6.1 15.6 0.00 0.00 0.00 32 1021.3
20260905185057 64 77 7.0 15.6 0.00 0.00 0.00 31 1021.1
20260905184625 64 129 7.0 14.8 0.00 0.00 0.00 32 1021.3
20260905184057 64 68 5.2 13.9 0.00 0.00 0.00 33 1021.3
20260905183557 64 154 6.1 13.9 0.00 0.00 0.00 33 1021.5
20260905183108 64 84 5.2 14.8 0.00 0.00 0.00 35 1021.6
20260905182557 63 18 6.1 14.8 0.00 0.00 0.00 33 1021.5
20260905182058 63 94 7.0 16.5 0.00 0.00 0.00 33 1021.6
20260905181607 63 50 6.1 16.5 0.00 0.00 0.00 32 1021.5
20260905181058 63 302 6.1 13.0 0.00 0.00 0.00 32 1021.5
20260905180557 63 75 4.3 12.2 0.00 0.00 0.00 32 1021.5
20260905180105 63 80 4.3 12.2 0.00 0.00 0.00 33 1021.6
20260905175557 63 69 3.5 12.2 0.00 0.00 0.00 34 1021.5
20260905175057 63 70 2.6 12.2 0.00 0.00 0.00 34 1021.4
20260905174610 63 35 4.3 12.2 0.00 0.00 0.00 32 1021.5
20260905174057 63 25 5.2 12.2 0.00 0.00 0.00 34 1021.5
20260905173558 64 63 0.9 6.1 0.00 0.00 0.00 35 1021.6
20260905173116 65 49 0.0 4.3 0.00 0.00 0.00 39 1021.6
20260905172556 63 258 1.7 4.3 0.00 0.00 0.00 39 1021.6
20260905172100 63 126 0.9 3.5 0.00 0.00 0.00 38 1021.7
20260905171625 63 84 0.9 3.5 0.00 0.00 0.00 39 1021.7
20260905171057 62 11 0.9 3.5 0.00 0.00 0.00 41 1021.6
20260905170557 61 27 0.9 4.3 0.00 0.00 0.00 41 1021.7
20260905170109 60 19 1.7 5.2 0.00 0.00 0.00 42 1021.6
20260905165558 60 47 2.6 5.2 0.00 0.00 0.00 41 1021.7
20260905165058 61 321 1.7 3.5 0.00 0.00 0.00 44 1021.7
20260905164606 61 47 0.0 2.6 0.00 0.00 0.00 43 1021.9
20260905164058 61 307 0.0 2.6 0.00 0.00 0.00 43 1021.7
20260905163557 60 0 0.0 4.3 0.00 0.00 0.00 43 1021.7
20260905163114 59 0 0.0 4.3 0.00 0.00 0.00 49 1021.8
20260905162600 59 74 0.9 4.3 0.00 0.00 0.00 49 1021.8
20260905162058 58 0 0.0 2.6 0.00 0.00 0.00 54 1021.9
20260905161604 58 302 0.0 2.6 0.00 0.00 0.00 55 1022.0
20260905161057 57 318 0.0 1.7 0.00 0.00 0.00 56 1022.0
20260905160557 56 0 0.0 4.3 0.00 0.00 0.00 58 1021.8
20260905160105 55 0 1.7 4.3 0.00 0.00 0.00 63 1021.9
20260905155557 55 48 0.9 3.5 0.00 0.00 0.00 64 1021.8
20260905155056 54 0 0.0 2.6 0.00 0.00 0.00 66 1022.0
20260905154618 54 84 0.0 2.6 0.00 0.00 0.00 67 1021.8
20260905154057 54 0 0.0 1.7 0.00 0.00 0.00 69 1022.0
20260905153556 51 0 0.0 1.7 0.00 0.00 0.00 74 1021.7
20260905153114 51 91 0.9 1.7 0.00 0.00 0.00 74 1021.9
20260905152557 49 0 0.0 0.9 0.00 0.00 0.00 78 1022.0
20260905152101 48 99 0.9 0.9 0.00 0.00 0.00 79 1022.1
20260905151613 48 0 0.0 0.9 0.00 0.00 0.00 79 1022.0
20260905151057 48 70 0.0 0.9 0.00 0.00 0.00 79 1022.0
20260905150556 47 0 0.0 0.9 0.00 0.00 0.00 81 1021.9
20260905150105 47 0 0.0 0.9 0.00 0.00 0.00 83 1022.0
20260905145601 46 0 0.0 0.9 0.00 0.00 0.00 81 1022.0
20260905145057 46 0 0.0 0.0 0.00 0.00 0.00 83 1022.0
20260905144603 44 0 0.0 0.0 0.00 0.00 0.00 87 1022.0
20260905144057 42 0 0.0 0.0 0.00 0.00 0.00 88 1022.0
20260905143557 40 0 0.0 0.0 0.00 0.00 0.00 91 1021.9
20260905143105 38 0 0.0 0.9 0.00 0.00 0.00 89 1021.8
20260905142557 38 0 0.0 0.9 0.00 0.00 0.00 88 1021.9
20260905142100 38 0 0.0 0.9 0.00 0.00 0.00 87 1021.8
20260905141603 38 0 0.0 0.9 0.00 0.00 0.00 88 1021.9
20260905141056 38 0 0.0 0.0 0.00 0.00 0.00 89 1021.8
20260905140556 38 0 0.0 0.9 0.00 0.00 0.00 88 1021.6
20260905140105 37 0 0.0 0.9 0.00 0.00 0.00 86 1021.6
20260905135557 37 170 0.0 0.9 0.00 0.00 0.00 88 1021.7
20260905135056 37 0 0.0 0.9 0.00 0.00 0.00 88 1021.5
20260905134602 37 190 0.0 2.6 0.00 0.00 0.00 87 1021.5
20260905134101 37 0 0.0 2.6 0.00 0.00 0.00 88 1021.5
20260905133557 37 217 0.0 2.6 0.00 0.00 0.00 87 1021.5